Hourly Weather Czyzykowo

Today, 17 April, Saturday

Time Temperature Precipitation Wind Pressure Humidity
00:00 +3°C° 0.1 mm 4 mps 760 mmHg 89%
01:00 +3°C° 0.1 mm 4 mps 760 mmHg 91%
02:00 +3°C° 0 mm 3 mps 760 mmHg 92%
03:00 +3°C° 0 mm 3 mps 760 mmHg 93%
04:00 +3°C° 0 mm 3 mps 760 mmHg 94%
05:00 +3°C° 0 mm 3 mps 760 mmHg 94%
06:00 +4°C° 0 mm 3 mps 760 mmHg 93%
07:00 +4°C° 0 mm 3 mps 760 mmHg 93%
08:00 +5°C° 0 mm 3 mps 760 mmHg 91%
09:00 +5°C° 0 mm 3 mps 760 mmHg 89%
10:00 +7°C° 0 mm 3 mps 760 mmHg 88%
11:00 +8°C° 0 mm 3 mps 760 mmHg 84%
12:00 +8°C° 0 mm 4 mps 760 mmHg 80%
13:00 +11°C° 0 mm 4 mps 760 mmHg 77%
14:00 +11°C° 0.1 mm 4 mps 759 mmHg 77%
15:00 +10°C° 0.1 mm 5 mps 759 mmHg 77%
16:00 +10°C° 0.1 mm 5 mps 759 mmHg 77%
17:00 +10°C° 0.3 mm 4 mps 759 mmHg 83%
18:00 +7°C° 0.3 mm 4 mps 759 mmHg 89%
19:00 +6°C° 0.3 mm 4 mps 759 mmHg 94%
20:00 +7°C° 0 mm 3 mps 759 mmHg 95%
21:00 +5°C° 0 mm 3 mps 759 mmHg 95%
22:00 +6°C° 0 mm 2 mps 759 mmHg 96%
23:00 +6°C° 0 mm 2 mps 759 mmHg 95%

Tomorrow, 18 April, Sunday

Time Temperature Precipitation Wind Pressure Humidity
00:00 +6°C° 0 mm 2 mps 759 mmHg 95%
01:00 +6°C° 0 mm 2 mps 759 mmHg 95%
02:00 +6°C° 0 mm 2 mps 759 mmHg 95%
03:00 +6°C° 0 mm 2 mps 759 mmHg 95%
04:00 +6°C° 0 mm 2 mps 759 mmHg 96%
05:00 +7°C° 0 mm 2 mps 759 mmHg 93%
06:00 +7°C° 0 mm 3 mps 759 mmHg 90%
07:00 +8°C° 0 mm 3 mps 760 mmHg 88%
08:00 +9°C° 0.1 mm 3 mps 759 mmHg 82%
09:00 +11°C° 0.1 mm 4 mps 759 mmHg 77%
10:00 +12°C° 0.1 mm 4 mps 759 mmHg 72%
11:00 +13°C° 0.5 mm 4 mps 759 mmHg 70%
12:00 +13°C° 0.5 mm 4 mps 759 mmHg 69%
13:00 +14°C° 0.5 mm 4 mps 759 mmHg 67%
14:00 +13°C° 0.4 mm 4 mps 759 mmHg 68%
15:00 +13°C° 0.4 mm 4 mps 758 mmHg 70%
16:00 +13°C° 0.4 mm 4 mps 758 mmHg 71%
17:00 +12°C° 0.3 mm 4 mps 759 mmHg 77%
18:00 +11°C° 0.3 mm 3 mps 759 mmHg 83%
19:00 +10°C° 0.3 mm 3 mps 759 mmHg 88%
20:00 +9°C° 0 mm 3 mps 759 mmHg 91%
21:00 +8°C° 0 mm 3 mps 759 mmHg 93%
22:00 +8°C° 0 mm 2 mps 759 mmHg 95%
23:00 +8°C° 0.5 mm 2 mps 759 mmHg 96%

Day after tomorrow, 19 April, Monday

Time Temperature Precipitation Wind Pressure Humidity
00:00 +8°C° 0.5 mm 2 mps 759 mmHg 96%
01:00 +9°C° 0.5 mm 2 mps 759 mmHg 97%
02:00 +9°C° 0.1 mm 2 mps 758 mmHg 96%
03:00 +8°C° 0.1 mm 2 mps 758 mmHg 96%
04:00 +8°C° 0.1 mm 2 mps 758 mmHg 96%
05:00 +9°C° 0.1 mm 3 mps 758 mmHg 94%
06:00 +9°C° 0.1 mm 3 mps 758 mmHg 93%
07:00 +9°C° 0.1 mm 3 mps 758 mmHg 91%
08:00 +10°C° 0 mm 3 mps 758 mmHg 87%
09:00 +11°C° 0 mm 3 mps 758 mmHg 83%
10:00 +11°C° 0 mm 3 mps 758 mmHg 79%
11:00 +12°C° 0 mm 4 mps 758 mmHg 70%
12:00 +14°C° 0 mm 4 mps 758 mmHg 62%
13:00 +15°C° 0 mm 4 mps 758 mmHg 53%
14:00 +15°C° 0 mm 4 mps 758 mmHg 53%
15:00 +14°C° 0 mm 3 mps 757 mmHg 54%
16:00 +14°C° 0 mm 3 mps 757 mmHg 55%
17:00 +13°C° 0 mm 3 mps 757 mmHg 59%
18:00 +12°C° 0 mm 3 mps 757 mmHg 64%
19:00 +11°C° 0 mm 3 mps 757 mmHg 68%
20:00 +10°C° 0 mm 3 mps 757 mmHg 70%
21:00 +10°C° 0 mm 3 mps 757 mmHg 72%
22:00 +9°C° 0 mm 3 mps 757 mmHg 74%
23:00 +9°C° 0 mm 2 mps 757 mmHg 76%

20 April, Tuesday

Time Temperature Precipitation Wind Pressure Humidity
00:00 +8°C° 0 mm 2 mps 757 mmHg 79%
01:00 +8°C° 0 mm 2 mps 757 mmHg 81%
02:00 +8°C° 0 mm 2 mps 756 mmHg 83%
03:00 +7°C° 0 mm 2 mps 756 mmHg 85%
04:00 +7°C° 0 mm 2 mps 756 mmHg 87%
05:00 +7°C° 0 mm 2 mps 756 mmHg 85%
06:00 +8°C° 0 mm 2 mps 756 mmHg 83%
07:00 +9°C° 0 mm 2 mps 756 mmHg 81%
08:00 +10°C° 0.2 mm 2 mps 756 mmHg 76%
09:00 +12°C° 0.2 mm 2 mps 755 mmHg 70%
10:00 +12°C° 0.2 mm 3 mps 755 mmHg 64%
11:00 +12°C° 0.1 mm 3 mps 755 mmHg 62%
12:00 +12°C° 0.1 mm 3 mps 755 mmHg 60%
13:00 +12°C° 0.1 mm 3 mps 754 mmHg 58%
14:00 +12°C° 0 mm 3 mps 754 mmHg 58%
15:00 +12°C° 0 mm 3 mps 754 mmHg 58%
16:00 +13°C° 0 mm 2 mps 754 mmHg 57%
17:00 +12°C° 0 mm 2 mps 754 mmHg 63%
18:00 +9°C° 0 mm 2 mps 753 mmHg 69%
19:00 +8°C° 0 mm 2 mps 753 mmHg 75%
20:00 +7°C° 0 mm 2 mps 753 mmHg 80%
21:00 +6°C° 0 mm 2 mps 753 mmHg 85%
22:00 +6°C° 0 mm 2 mps 753 mmHg 90%
23:00 +5°C° 0 mm 2 mps 753 mmHg 90%

21 April, Wednesday

Time Temperature Precipitation Wind Pressure Humidity
00:00 +6°C° 0 mm 1 mps 753 mmHg 90%
01:00 +5°C° 0 mm 1 mps 752 mmHg 90%
02:00 +5°C° 0 mm 1 mps 752 mmHg 90%
03:00 +5°C° 0 mm 1 mps 752 mmHg 90%
04:00 +4°C° 0 mm 1 mps 752 mmHg 90%
05:00 +6°C° 0 mm 1 mps 752 mmHg 85%
06:00 +7°C° 0 mm 1 mps 752 mmHg 80%
07:00 +8°C° 0 mm 1 mps 752 mmHg 75%
08:00 +9°C° 0 mm 1 mps 752 mmHg 69%
09:00 +11°C° 0 mm 1 mps 751 mmHg 62%
10:00 +12°C° 0 mm 0 mps 751 mmHg 56%
11:00 +13°C° 0.1 mm 1 mps 751 mmHg 53%
12:00 +14°C° 0.1 mm 1 mps 751 mmHg 51%
13:00 +15°C° 0.1 mm 1 mps 751 mmHg 48%
14:00 +15°C° 0 mm 1 mps 750 mmHg 49%
15:00 +15°C° 0 mm 1 mps 750 mmHg 50%
16:00 +15°C° 0 mm 1 mps 750 mmHg 51%
17:00 +14°C° 0 mm 1 mps 750 mmHg 56%
18:00 +12°C° 0 mm 1 mps 750 mmHg 61%
19:00 +11°C° 0 mm 1 mps 750 mmHg 66%
20:00 +9°C° 0 mm 2 mps 750 mmHg 68%
21:00 +9°C° 0 mm 2 mps 750 mmHg 70%
22:00 +8°C° 0 mm 3 mps 750 mmHg 71%
23:00 +8°C° 0 mm 3 mps 750 mmHg 72%

22 April, Thursday

Time Temperature Precipitation Wind Pressure Humidity
00:00 +8°C° 0 mm 3 mps 750 mmHg 74%
01:00 +8°C° 0 mm 3 mps 750 mmHg 75%
02:00 +8°C° 0 mm 3 mps 750 mmHg 76%
03:00 +8°C° 0 mm 2 mps 749 mmHg 78%
04:00 +8°C° 0 mm 2 mps 749 mmHg 79%
05:00 +8°C° 0 mm 3 mps 749 mmHg 78%
06:00 +9°C° 0 mm 3 mps 750 mmHg 77%
07:00 +9°C° 0 mm 3 mps 750 mmHg 76%
08:00 +10°C° 0.1 mm 3 mps 750 mmHg 77%
09:00 +10°C° 0.1 mm 3 mps 751 mmHg 78%
10:00 +10°C° 0.1 mm 3 mps 751 mmHg 79%
11:00 +8°C° 0.4 mm 4 mps 752 mmHg 84%
12:00 +6°C° 0.4 mm 5 mps 752 mmHg 88%
13:00 +3°C° 0.4 mm 6 mps 753 mmHg 92%
14:00 +3°C° 0.6 mm 5 mps 754 mmHg 90%
15:00 +4°C° 0.6 mm 4 mps 754 mmHg 88%
16:00 +4°C° 0.6 mm 3 mps 755 mmHg 85%
17:00 +4°C° 0 mm 3 mps 755 mmHg 85%
18:00 +5°C° 0 mm 2 mps 755 mmHg 84%
19:00 +6°C° 0 mm 1 mps 755 mmHg 83%
20:00 +6°C° 0 mm 1 mps 755 mmHg 86%
21:00 +5°C° 0 mm 2 mps 756 mmHg 88%
22:00 +4°C° 0 mm 2 mps 756 mmHg 90%
23:00 +4°C° 0 mm 2 mps 756 mmHg 90%
Show more